Weather History for Salt Lake City, UT

Change the Weather History Date:

Wednesday, March 27, 2013

  Actual Average Record
Temperature  
Mean Temperature 49 °F 46 °F  
Max Temperature 65 °F 57 °F 76 °F (1895)
Min Temperature 33 °F 36 °F 14 °F (1931)
Degree Days  
Heating Degree Days 16 19  
Month to date heating degree days 589 589  
Since 1 July heating degree days 4821 4845  
Cooling Degree Days 0 0  
Month to date cooling degree days 0 0  
Year to date cooling degree days 0 0  
Moisture  
Dew Point 31 °F    
Average Humidity 54    
Maximum Humidity 79    
Minimum Humidity 28    
Precipitation  
Precipitation 0.00 in 0.06 in 0.93 in (1998)
Month to date precipitation 0.71 1.53  
Year to date precipitation 2.91 4.03  
Snow  
Snow 0.00 in 0.10 in 2.60 in (1981)
Month to date snowfall 2.7 5.7  
Since 1 July snowfall 69.8 51.1  
Snow Depth 0.00 in    
Sea Level Pressure  
Sea Level Pressure 29.93 in    
Wind  
Wind Speed 5 mph (ENE)    
Max Wind Speed 13 mph    
Max Gust Speed 23 mph    
Visibility 10 miles    
Events      
T = Trace of Precipitation, MM = Missing Value Source: NWS Daily Summary

Daily Weather History Graph

Daily Weather History Graph

Search for Another Location

Airport:

Trip Planner

Search our weather history database for the weather conditions in past years. The results will help you decide how hot, cold, wet, or windy it might be!

Date:

Astronomy

Mar. 27, 2013 Rise Set
Actual Time 7:19 AM MDT 7:47 PM MDT
Civil Twilight 6:51 AM MDT 8:15 PM MDT
Nautical Twilight 6:19 AM MDT 8:47 PM MDT
Astronomical Twilight 5:46 AM MDT 9:20 PM MDT
Moon 8:36 PM MDT (3/27) 7:11 AM MDT (3/27)
Length of Visible Light 13h 23m
Length of Day
12h 28m
Full, 100% of the Moon is Illuminated
Mar 27
Full
Apr 2
Last Quarter
Apr 10
New
Apr 18
First Quarter
Apr 25
Full

Hourly Weather History & Observations

Time (MDT) Temp. Windchill Dew Point Humidity Pressure Visibility Wind Dir Wind Speed Gust Speed Precip Events Conditions
12:53 AM 39.0 °F 36.8 °F 32.0 °F 76% 29.93 in 10.0 mi SE 3.5 mph - N/A   Partly Cloudy
1:53 AM 39.9 °F 37.8 °F 32.0 °F 73% 29.92 in 10.0 mi SSE 3.5 mph - N/A   Partly Cloudy
2:53 AM 37.9 °F 33.5 °F 30.9 °F 76% 29.93 in 10.0 mi ESE 5.8 mph - N/A   Scattered Clouds
3:53 AM 37.0 °F - 30.9 °F 79% 29.92 in 10.0 mi Calm Calm - N/A   Partly Cloudy
4:53 AM 36.0 °F - 28.9 °F 76% 29.92 in 10.0 mi Calm Calm - N/A   Partly Cloudy
5:53 AM 36.0 °F 33.3 °F 28.9 °F 76% 29.95 in 10.0 mi SSE 3.5 mph - N/A   Partly Cloudy
6:53 AM 34.0 °F 28.8 °F 28.0 °F 79% 29.96 in 10.0 mi SSE 5.8 mph - N/A   Scattered Clouds
7:53 AM 36.0 °F 29.0 °F 28.9 °F 76% 29.98 in 10.0 mi SE 9.2 mph - N/A   Partly Cloudy
8:53 AM 43.0 °F 38.2 °F 32.0 °F 65% 29.97 in 10.0 mi SSE 8.1 mph - N/A   Partly Cloudy
9:53 AM 48.9 °F - 30.9 °F 50% 29.99 in 10.0 mi North 4.6 mph - N/A   Mostly Cloudy
10:53 AM 50.0 °F - 33.1 °F 52% 29.99 in 10.0 mi NNE 3.5 mph - N/A   Mostly Cloudy
11:53 AM 57.0 °F - 30.9 °F 37% 29.97 in 10.0 mi Calm Calm - N/A   Mostly Cloudy
12:53 PM 57.9 °F - 32.0 °F 37% 29.96 in 10.0 mi NW 4.6 mph - N/A   Mostly Cloudy
1:53 PM 62.1 °F - 30.9 °F 31% 29.93 in 10.0 mi Calm Calm - N/A   Scattered Clouds
2:53 PM 63.0 °F - 32.0 °F 31% 29.90 in 10.0 mi NW 6.9 mph - N/A   Scattered Clouds
3:53 PM 64.0 °F - 30.9 °F 29% 29.89 in 10.0 mi NNW 8.1 mph - N/A   Scattered Clouds
4:53 PM 64.0 °F - 32.0 °F 30% 29.88 in 10.0 mi North 8.1 mph - N/A   Mostly Cloudy
5:53 PM 63.0 °F - 30.9 °F 30% 29.88 in 10.0 mi NW 5.8 mph - N/A   Mostly Cloudy
6:53 PM 60.1 °F - 30.0 °F 32% 29.90 in 10.0 mi NW 10.4 mph - N/A   Mostly Cloudy
7:53 PM 54.0 °F - 33.1 °F 45% 29.91 in 10.0 mi NNW 5.8 mph - N/A   Mostly Cloudy
8:53 PM 51.1 °F - 34.0 °F 52% 29.90 in 10.0 mi West 6.9 mph - N/A   Scattered Clouds
9:53 PM 50.0 °F - 34.0 °F 54% 29.91 in 10.0 mi Calm Calm - N/A   Scattered Clouds
10:53 PM 48.9 °F - 34.0 °F 56% 29.92 in 10.0 mi SSE 3.5 mph - N/A   Scattered Clouds
11:53 PM 48.9 °F - 32.0 °F 52% 29.90 in 10.0 mi South 4.6 mph - N/A   Scattered Clouds